STARLINK-32282

Last updated on Sun Oct 06 2024 00:02:04 GMT+0000 (Coordinated Universal Time)

1 61006U 24158S 24279.42513805 .00002744 00000+0 57359-4 0 9994 2 61006 53.1590 327.9850 0001253 78.2863 281.8287 15.49318947 5919
UTC large
Height (km)
Speed (km/s)
/
Latitude / Longitude
Inclination (degrees)
Orbital Period (minutes)
Azimuth
Elevation
Range (km)
Doppler Factor

Next 0 passes for location: London (51.5072 / 0.1276)

Sorry there are no passes over London.